TimeMST,TemperatureF,Dew PointF,Humidity,Sea Level PressureIn,VisibilityMPH,Wind Direction,Wind SpeedMPH,Gust SpeedMPH,PrecipitationIn,Events,Conditions,WindDirDegrees,DateUTC
12:55 AM,23.0,10.0,58,30.44,10.0,WSW,10.4,-,N/A,,Clear,250,2011-11-27 07:55:00
1:55 AM,25.0,10.9,55,30.42,10.0,West,9.2,-,N/A,,Clear,260,2011-11-27 08:55:00
2:55 AM,21.0,10.0,63,30.40,10.0,West,8.1,-,N/A,,Clear,280,2011-11-27 09:55:00
3:55 AM,23.0,12.0,63,30.38,10.0,West,10.4,-,N/A,,Clear,270,2011-11-27 10:55:00
4:55 AM,21.0,12.9,71,30.38,10.0,West,8.1,-,N/A,,Clear,280,2011-11-27 11:55:00
5:55 AM,28.9,12.9,51,30.35,10.0,WSW,8.1,-,N/A,,Clear,250,2011-11-27 12:55:00
6:55 AM,21.9,14.0,72,30.35,10.0,West,10.4,-,N/A,,Clear,270,2011-11-27 13:55:00
7:55 AM,28.0,15.1,58,30.34,10.0,West,3.5,-,N/A,,Clear,270,2011-11-27 14:55:00
8:55 AM,37.0,18.0,46,30.34,10.0,WSW,10.4,-,N/A,,Clear,250,2011-11-27 15:55:00
9:55 AM,48.9,19.0,31,30.30,10.0,WSW,6.9,-,N/A,,Clear,240,2011-11-27 16:55:00
10:55 AM,57.0,18.0,22,30.27,10.0,WSW,3.5,-,N/A,,Clear,240,2011-11-27 17:55:00
11:55 AM,73.9,15.1,11,30.19,10.0,WSW,9.2,-,N/A,,Clear,240,2011-11-27 18:55:00
12:55 PM,75.0,16.0,11,30.17,10.0,SW,8.1,-,N/A,,Clear,220,2011-11-27 19:55:00
1:55 PM,75.0,19.0,12,30.13,10.0,SSW,8.1,-,N/A,,Clear,200,2011-11-27 20:55:00
2:55 PM,75.0,19.9,13,30.12,10.0,South,4.6,-,N/A,,Clear,180,2011-11-27 21:55:00
3:55 PM,69.1,21.0,16,30.10,10.0,SSW,4.6,-,N/A,,Clear,200,2011-11-27 22:55:00
4:55 PM,60.1,21.0,22,30.10,10.0,SSW,4.6,-,N/A,,Clear,200,2011-11-27 23:55:00
5:55 PM,44.1,21.0,40,30.09,10.0,Calm,Calm,-,N/A,,Clear,0,2011-11-28 00:55:00
6:55 PM,44.1,21.9,42,30.08,10.0,West,3.5,-,N/A,,Clear,260,2011-11-28 01:55:00
7:55 PM,44.1,21.9,42,30.05,10.0,Calm,Calm,-,N/A,,Clear,0,2011-11-28 02:55:00
8:55 PM,42.1,21.9,45,30.03,10.0,WNW,4.6,-,N/A,,Clear,300,2011-11-28 03:55:00
9:55 PM,37.0,21.9,54,29.99,10.0,WNW,4.6,-,N/A,,Clear,290,2011-11-28 04:55:00
10:55 PM,32.0,21.0,64,29.98,10.0,West,4.6,-,N/A,,Clear,280,2011-11-28 05:55:00
11:55 PM,30.9,19.9,64,29.94,10.0,West,3.5,-,N/A,,Clear,280,2011-11-28 06:55:00